CYGFM05 (41884 NORAD) Tracking and Keplerian Element Data

This shows tracking and keplerian element data for the satellite.

Feedback or suggestion? Click here.




ElementValue
Catalog41884
NameCYGFM05
Epoch Orbit8783
Epoch Day198.83426249
Epoch Year2018
RAAN90.4576
Inclination34.9572
Eccentricity0.0017106
Argument of Perigee270.673
Mean Anonmoly89.2021
Mean Motion15.14090606
Decay Rate1.264E-05
L11 41884U 16078A 18198.83426249 .00001264 00000-0 69391-4 0 9997
L22 41884 34.9572 90.4576 0017106 270.6730 89.2021 15.14090606 87838

Live tracking and technical data element details for CYGFM05 (NORAD 41884). CYGFM05 can be tracked NOW for your location showing map with azimuth and elevation plus other details from your city location.

Track the satellite on the map from your city or location and see movement details for azimuth, elevation, latitude, longitude, range, height, and movement on the map or in text.







IsCatalogInMostPopularTable: catalog: 41884, numindb: 91
Update: records affected: 1



GetName: 41884 CYGFM05

Hit Count: updated at: Thu, 19 Jul 2018 03:51:23 GMT